Regional Weather Roundup
Issued by NWS State College, PA

Home | Current Version | Previous Version | Graphics & Text | Print | Product List | Glossary On
Versions: 1 2 3 4 5 6 7 8 9 10 11 12 13 14 15 16 17 18 19 20 21 22 23 24 25 26 27 28 29 30 31 32 33 34 35 36 37 38 39 40 41 42 43 44 45 46 47 48 49 50
000
ASUS41 KCTP 221010
RWRCTP

REGIONAL WEATHER ROUNDUP
NATIONAL WEATHER SERVICE STATE COLLEGE PA
600 AM EDT WED OCT 22 2014

Note: "fair" indicates few or no clouds below 12,000 feet with no
significant weather and/or obstructions to visibility.

* = STATION THAT DOES NOT REPORT PRECIPITATION /E.G. RAIN...SNOW...ETC/
    THUNDER OR FOG.

PAZ002>004-007>009-013>016-020>023-029>032-221100-
WESTERN PENNSYLVANIA

CITY           SKY/WX    TMP DP  RH WIND       PRES   REMARKS
ERIE           CLOUDY    48  42  80 NE16G23   30.16R
MEADVILLE      CLOUDY    45  42  89 N12       30.12R
FRANKLIN*      CLOUDY    43  39  87 N9        30.12R
NEW CASTLE       N/A     46  44  93 N7        30.13R
BEAVER COUNTY  NOT AVBL
BUTLER*        CLOUDY    46  39  76 N7        30.10R
PITTSBURGH INT CLOUDY    47  42  83 N14       30.08R
PITTSBURGH     CLOUDY    47  42  83 N9G18     30.06R
INDIANA*       CLOUDY    48  46  93 VRB5      30.08R
LATROBE        NOT AVBL
WASHINGTON CO* CLOUDY    46  43  87 N7        30.09R
$$

PAZ004>006-010>012-017>019-024>028-033>037-041-042-045-046-049>053-221100-
CENTRAL PENNSYLVANIA

CITY           SKY/WX    TMP DP  RH WIND       PRES   REMARKS
BRADFORD       LGT RAIN  42  39  89 N9        30.06R
DUBOIS         CLOUDY    44  42  93 N13       30.04R
CLEARFIELD     CLOUDY    46  42  86 N13       30.02S
JOHNSTOWN      CLOUDY    45  43  93 N12       30.00R
ALTOONA        MOCLDY    49  45  86 N7        29.99R
STATE COLLEGE  CLOUDY    49  45  85 N9        29.99R
WILLIAMSPORT   CLOUDY    54  46  74 NW7       29.98R
SELINSGROVE    CLOUDY    54  47  77 N7        29.96R
FT INDIANTOWN  CLOUDY    55  54  96 VRB7      29.92R
CAPITAL CITY   CLOUDY    56  48  74 NW10G17   29.92R
HARRISBURG     CLOUDY    55  47  74 N8        29.91R
YORK           CLOUDY    52  49  89 NW7       29.91R
$$

PAZ038>040-043-044-047-048-054-055-060>062-067>071-221100-
EASTERN PENNSYLVANIA

CITY           SKY/WX    TMP DP  RH WIND       PRES   REMARKS
SCRANTON       CLOUDY    51  48  89 NE6       29.95R
MOUNT POCONO   LGT RAIN  49  46  90 N13       29.92S
ALLENTOWN      CLOUDY    55  50  83 NE10      29.90R
QUAKERTOWN*    CLOUDY    54  50  87 N8        29.90R
READING        CLOUDY    55  48  77 N6        29.89S
LANCASTER      CLOUDY    54  48  80 N10       29.90R
COATESVILLE    LGT RAIN  52  50  93 N8        29.88S
POTTSTOWN      CLOUDY    55  50  83 N9        29.89S
BLUE BELL      CLOUDY    55  52  88 NE3       29.86S
DOYLESTOWN     CLOUDY    53  52  96 N10       29.87S
WILLOW GROVE   NOT AVBL
NORTH PHILA    LGT RAIN  57  51  80 NE12      29.86F
PHILADELPHIA   LGT RAIN  56  52  86 N14       29.84S
$$



USA.gov is the U.S. government's official web portal to all federal, state and local government web resources and services.